Overview Statistics Trail Chart Weather Telemetry Raw packets
 

This is the latest recevied weather packets stored in our database for station/object KD4EG. If no packets are shown the sender has not sent any weather packets the latest 10 day(s).

<< 3 4 5 6 7 8 9 >>
Time Temp. Humidity Pressure Rain* Wind** Luminosity Snow
1788622290 28.33° C 67% 1016.7 hPa 0 mm - 333 W/m² -
1788621985 27.78° C 68% 1016.4 hPa 0 mm - 202 W/m² -
1788621680 28.33° C 68% 1016.7 hPa 0 mm - 173 W/m² -
1788621374 28.33° C 69% 1016.8 hPa 0 mm - 153 W/m² -
1788621064 28.33° C 69% 1016.6 hPa 0 mm - 131 W/m² -
1788620760 28.33° C 68% 1016.4 hPa 0 mm - 92 W/m² -
1788620457 28.89° C 69% 1016.3 hPa 0 mm - 68 W/m² -
1788620151 28.89° C 69% 1016.7 hPa 0 mm - 50 W/m² -
1788619850 28.33° C 73% 1016.4 hPa 0 mm - 65 W/m² -
1788619545 28.33° C 72% 1016.4 hPa 0 mm - 107 W/m² -
1788619244 28.89° C 72% 1015.8 hPa 0 mm - 140 W/m² -
1788618944 28.89° C 72% 1015.8 hPa 0 mm - 121 W/m² -
1788618639 28.89° C 72% 1015.8 hPa 0 mm - 113 W/m² -
1788618338 28.89° C 71% 1016 hPa 0 mm - 126 W/m² -
1788618033 28.89° C 71% 1016 hPa 0 mm - 146 W/m² -
1788617727 28.89° C 71% 1015.8 hPa 0 mm - 161 W/m² -
1788617424 28.89° C 71% 1015.8 hPa 0 mm - 304 W/m² -
1788617124 28.33° C 71% 1015.9 hPa 0 mm - 285 W/m² -
1788616823 28.33° C 72% 1015.7 hPa 0 mm - 248 W/m² -
1788616519 28.33° C 71% 1015.7 hPa 0 mm - 216 W/m² -
1788616214 28.33° C 71% 1015.8 hPa 0 mm - 265 W/m² -
1788615908 28.33° C 72% 1015.8 hPa 0 mm - 359 W/m² -
1788615607 27.78° C 73% 1015.8 hPa 0 mm - 455 W/m² -
1788615303 27.78° C 73% 1015.8 hPa 0 mm - 416 W/m² -
1788615002 27.22° C 74% 1015.7 hPa 0 mm - 365 W/m² -

* Rain latest hour (hover to see other rain measurements)
** Current wind speed in m/s (hover to see current wind gust speed)